Weather Roundup
Issued by NWS Chicago, IL

Home | Current Version | Previous Version | Text Only | Print | Product List | Glossary Off
Versions: 1 2 3 4 5 6 7 8 9 10 11 12 13 14 15 16 17 18 19 20 21 22 23 24 25 26 27 28 29 30 31 32 33 34 35 36 37 38 39 40 41 42 43 44 45 46 47 48 49 50

000
NZUS59 KLOT 200003
HRRLOT

CHICAGO AREA WEATHER ROUNDUP
NATIONAL WEATHER SERVICE CHICAGO/ROMEOVILLE IL
600 PM CST FRI JAN 19 2018

NOTE: "FAIR" INDICATES FEW OR NO CLOUDS BELOW 12,000 FEET WITH NO
SIGNIFICANT WEATHER AND/OR OBSTRUCTIONS TO VISIBILITY.

* THESE STATIONS ARE NOT UNDER NWS QUALITY CONTROL. THEY ALSO MAY NOT
  REPORT WEATHER SUCH AS PRECIPITATION OR FOG.

ILZ005-006-012>014-019>023-200100-
NORTHEAST ILLINOIS

CITY           SKY/WX    TMP DP  RH WIND       PRES   REMARKS
OHARE          MOCLDY    39  28  64 SW18G29   29.73F
6HR MIN TEMP:  36; 6HR MAX TEMP:  40;

MIDWAY         MOCLDY    38  29  70 SW18G28   29.75F
6HR MIN TEMP:  37; 6HR MAX TEMP:  39;

AURORA           N/A     37  29  72 S12       29.76S
6HR MIN TEMP:  35; 6HR MAX TEMP:  39;

LANSING*         N/A     34  30  85 S16G23    29.80S WCI  23
JOLIET*          N/A     39  31  73 S13G18    29.79S
WAUKEGAN         N/A     38  27  64 SW22G33   29.67F
6HR MIN TEMP:  37; 6HR MAX TEMP:  41;

DUPAGE AIRPORT   N/A     35  29  78 S12       29.74S WCI  27
6HR MIN TEMP:  35; 6HR MAX TEMP:  37;

WHEELING         N/A     40  28  62 S13G24    29.74S
6HR MIN TEMP:  38; 6HR MAX TEMP:  40;

KANKAKEE*        N/A    N/A N/A N/A S14       29.84S
MORRIS*          N/A     37  30  78 S12       29.77F
NORTHERLY ISL    N/A     37  27  67 S20         N/A
$$

WIZ051-052-058>065-066-070>072-200100-
SOUTHEAST WISCONSIN

CITY           SKY/WX    TMP DP  RH WIND       PRES   REMARKS
MILWAUKEE      CLOUDY    38  27  64 SW22G35   29.62F
6HR MIN TEMP:  38; 6HR MAX TEMP:  41;

KENOSHA*         N/A     39  26  59 SW18G30   29.66F
RACINE*          N/A     38  26  62 SW15G26   29.67S
BURLINGTON       N/A     36  27  71 S18G24    29.66F
WAUKESHA       CLEAR     36  27  69 SW16G24   29.63F
$$

INZ001>003-010>013-019-020-200100-
NORTHWEST INDIANA

CITY           SKY/WX    TMP DP  RH WIND       PRES   REMARKS
GARY*          MOCLDY    37  27  65 S14       29.79F
MICHIGAN CITY* NOT AVBL
RENSSELAER*    NOT AVBL
VALPARAISO       N/A     35  25  66 S16       29.82F WCI  25
$$

LMZ740>746-200100-
SOUTHERN LAKE MICHIGAN

STATION/POSITION TIME  SKY/WX   TEMP WIND        PRES    VSBY
                                AIR  DIR/SP/G
                 (UTC)          (F)  (DEG/KT/KT) (MB)    (MI)
HARRISON CRIB    2340            38  200/ 29/ 34   N/A
BURNHAM HARBOR   0000            37  210/ 16/ 19   N/A
CALUMET HARBOR   2330            37  190/ 14/ 22 1007.4F
BURNS HARBOR     2340            35  190/ 20/ 25 1009.1F
MICHIGAN CITY    2340            35  180/ 21/ 27   N/A
$$

ABBREVIATIONS USED IN REMARKS
   TC - TEMPERATURE IN CELSIUS
  WCI - WIND CHILL INDEX
   HX - HEAT INDEX
  VSB - VISIBILITY
$$




USA.gov is the U.S. government's official web portal to all federal, state and local government web resources and services.